[[{"header":{"parameterUnit":"m.s-1","parameterCategory":1,"la1":30.2991,"la2":30.254,"lo1":-89.0895,"lo2":-89.0444,"dy":0.0017,"dx":0.0017,"nx":28,"ny":28,"refTime":"2023-04-26T21:00:00:Z","depth":0,"parameterNumber":2,"parameterNumberName":"U-component_of_WINDS"},"data":[0,0,0,0,0,0,0,0,0,0,0,0,0,0,0,0,0,0,0,0,0,0,0,0,0,0,0,0,0,0,0,0,0,0,0,0,0,0,0,0,0,0,0,0,0,0,0,0,0,0,0,0,0,0,0,0,0,0,1.4424,1.4423,0,1.4338,1.4337,1.4336,1.4198,1.4195,1.4193,1.419,1.4107,1.4107,1.4107,0,0,0,0,0,0,0,0,0,0,0,0,0,1.4475,1.4474,1.4424,1.4423,1.4422,1.4338,1.4337,1.4336,1.4198,1.4195,1.4192,1.4189,1.4107,1.4107,1.4107,0,0,0,0,0,0,0,0,0,0,0,0,0,1.4427,1.4474,1.4424,1.4343,1.4335,1.4338,1.4337,1.4335,1.4199,1.4195,1.4191,1.4188,1.4107,1.4107,1.4107,1.4184,0,0,1.4108,1.4108,0,0,0,0,0,0,0,0,1.443,1.4426,1.4356,1.4349,1.434,1.4275,1.4324,1.4285,1.42,1.4251,1.419,1.4186,1.4166,1.4161,1.4153,1.418,1.4177,1.4108,1.4108,1.4108,1.4108,0,0,0,0,0,0,0,1.4434,1.4429,1.439,1.4355,1.4345,1.4313,1.4302,1.4316,1.4231,1.4246,1.4236,1.4227,1.4161,1.4154,1.415,1.4175,1.4108,1.4108,1.4108,1.4108,1.4263,1.4267,0,0,0,0,0,0,1.4448,1.4432,1.4393,1.4388,1.4376,1.4315,1.4303,1.4299,1.423,1.4216,1.423,1.4221,1.4155,1.415,1.4147,1.4233,1.4108,1.4108,1.4108,1.4259,1.4264,1.4268,0,0,0,0,0,0,1.445,1.4446,1.4396,1.4407,1.4398,1.4318,1.4316,1.43,1.4292,1.4218,1.4203,1.4238,1.4152,1.4147,1.4176,1.4228,1.4108,1.4108,1.4254,1.426,1.4266,1.4406,0,0,0,0,0,0,1.4452,1.4447,1.4475,1.4409,1.4398,1.4426,1.4319,1.4301,1.4292,1.4279,1.4222,1.4209,1.4148,1.4176,1.4176,1.4226,1.4108,1.4249,1.4257,1.4264,1.4397,1.4416,1.4433,0,0,0,0,0,1.4454,1.4518,1.4477,1.4473,1.443,1.4429,1.4423,1.4351,1.4297,1.4325,1.4278,1.4211,1.4223,1.418,1.4179,1.423,1.4245,1.4255,1.4263,1.4388,1.4413,1.4433,0,0,0,0,0,0,1.4594,1.4508,1.4461,1.4505,1.4476,1.4406,1.4438,1.4379,1.4364,1.4353,1.4266,1.4254,1.4295,1.4265,1.422,1.4302,1.4224,1.4233,1.4319,1.4342,1.436,1.4366,1.4109,0,0,0,0,0,1.463,1.4634,1.456,1.4606,1.4593,1.4519,1.4516,1.4463,1.4429,1.4416,1.437,1.4341,1.4338,1.4338,1.4332,1.4392,1.4378,1.4427,1.4445,1.446,1.4469,1.45,1.4521,1.4297,1.4297,1.4297,0,0,1.4704,1.4658,1.4666,1.4633,1.4603,1.4612,1.4509,1.4522,1.4527,1.4418,1.4442,1.4409,1.4371,1.4416,1.4434,1.4393,1.4528,1.4472,1.4485,1.4485,1.4512,1.4533,1.4552,1.4304,1.4302,1.4301,0,0,1.4843,1.4809,1.4844,1.4816,1.4772,1.4722,1.4732,1.4671,1.4644,1.4667,1.4585,1.4591,1.4588,1.4564,1.4552,1.4685,1.4623,1.4685,1.4781,1.4812,1.4829,1.4845,1.4893,1.4911,1.4694,1.4695,1.4695,0,1.4942,1.4949,1.487,1.4888,1.4876,1.4777,1.4813,1.479,1.4748,1.4743,1.4697,1.4692,1.4659,1.4698,1.473,1.4724,1.4732,1.4691,1.4833,1.4848,1.4861,1.4905,1.4923,1.4703,1.4702,1.4701,1.47,0,1.5072,1.5079,1.5113,1.5073,1.5065,1.5093,1.5019,1.5022,1.497,1.4926,1.4952,1.4909,1.4892,1.4898,1.4848,1.493,1.4906,1.4849,1.4768,1.4891,1.4932,1.4948,1.4714,1.4711,1.4709,1.4707,0,0,1.5296,1.5212,1.5226,1.5207,1.5152,1.5157,1.5181,1.5163,1.5167,1.5142,1.516,1.516,1.5106,1.5093,1.504,1.5067,1.5176,1.5005,1.5003,1.5039,1.5265,1.5309,1.533,1.5135,1.5138,1.514,1.5268,0,1.5424,1.5458,1.5388,1.5439,1.5445,1.5352,1.5372,1.5342,1.5302,1.5303,1.5259,1.526,1.5189,1.518,1.5203,1.5158,1.522,1.5148,1.5153,1.5154,1.5165,1.5351,1.5397,1.552,1.5284,1.5286,1.5288,0,1.5578,1.5559,1.5611,1.5553,1.5553,1.5573,1.5552,1.5553,1.5518,1.5487,1.5473,1.541,1.5431,1.5355,1.5383,1.5336,1.5334,1.5312,1.5315,1.5313,1.5228,1.5354,1.5557,1.5576,1.5312,1.531,1.5309,0,1.5736,1.5724,1.5753,1.574,1.5674,1.569,1.5664,1.5625,1.5619,1.5602,1.5597,1.5583,1.5576,1.5567,1.5504,1.5453,1.5541,1.5458,1.5517,1.5519,1.5539,1.5538,1.5745,1.5538,1.5538,1.5538,1.5537,0,1.5886,1.5922,1.5823,1.5842,1.5879,1.58,1.584,1.5804,1.5771,1.5782,1.5701,1.5713,1.5628,1.5632,1.5583,1.5615,1.5612,1.5589,1.5575,1.5595,1.5599,1.5593,1.5583,1.5543,1.5542,1.5541,1.554,0,1.6069,1.6005,1.603,1.5966,1.5951,1.5982,1.5927,1.5943,1.5898,1.5913,1.5912,1.5842,1.5842,1.5778,1.5766,1.5733,1.5786,1.5757,1.5797,1.5788,1.585,1.5845,1.606,1.6084,1.5863,1.5866,1.5867,0,1.6169,1.6194,1.6132,1.6133,1.611,1.6113,1.6106,1.603,1.6028,1.599,1.601,1.6004,1.5994,1.6,1.5949,1.594,1.591,1.5986,1.5908,1.5928,1.5911,1.5911,1.5913,1.6003,1.6005,1.6008,1.6009,0,1.6353,1.632,1.6313,1.6296,1.629,1.6274,1.6252,1.6258,1.6174,1.6176,1.6174,1.6167,1.6154,1.615,1.6131,1.6106,1.6045,1.6035,1.6047,1.6068,1.6091,1.608,1.5842,1.603,1.6028,1.6026,1.6025,1.6024,1.6497,1.6515,1.6475,1.647,1.6446,1.6427,1.6438,1.6395,1.6392,1.6374,1.6331,1.6337,1.6303,1.6271,1.6252,1.6257,1.6219,1.6238,1.6242,1.6248,1.626,1.6091,1.6253,1.6252,1.6252,1.6251,1.6251,0,1.6677,1.6646,1.6643,1.6614,1.6612,1.6553,1.6527,1.6529,1.6535,1.6507,1.65,1.6499,1.6495,1.6444,1.6434,1.6448,1.642,1.6448,1.6446,1.6441,1.6294,1.6284,1.6471,1.6471,1.6471,1.6471,1.6471,1.6471,1.677,1.6797,1.676,1.6776,1.6745,1.675,1.674,1.6723,1.6701,1.6703,1.6699,1.6665,1.6629,1.6616,1.661,1.6595,1.6595,1.6633,1.6609,1.6473,1.6452,1.6431,1.6421,1.6634,1.6634,1.6756,1.6757,1.6758]},{"header":{"parameterUnit":"m.s-1","parameterCategory":1,"la1":30.2991,"la2":30.254,"lo1":-89.0895,"lo2":-89.0444,"dy":0.0017,"dx":0.0017,"nx":28,"ny":28,"refTime":"2023-04-26T21:00:00:Z","depth":0,"parameterNumber":3,"parameterNumberName":"V-component_of_WINDS"},"data":[0,0,0,0,0,0,0,0,0,0,0,0,0,0,0,0,0,0,0,0,0,0,0,0,0,0,0,0,0,0,0,0,0,0,0,0,0,0,0,0,0,0,0,0,0,0,0,0,0,0,0,0,0,0,0,0,0,0,3.1821,3.1823,0,3.1994,3.1996,3.1998,3.1978,3.1976,3.1973,3.197,3.2142,3.2149,3.2156,0,0,0,0,0,0,0,0,0,0,0,0,0,3.1465,3.1472,3.1821,3.1823,3.1825,3.1993,3.1996,3.1998,3.1979,3.1975,3.1972,3.1969,3.2139,3.2148,3.2156,0,0,0,0,0,0,0,0,0,0,0,0,0,3.1627,3.1474,3.182,3.1836,3.1839,3.1993,3.1996,3.1999,3.1979,3.1975,3.1971,3.1967,3.2136,3.2147,3.2157,3.2305,0,0,3.219,3.2195,0,0,0,0,0,0,0,0,3.1618,3.164,3.1831,3.1835,3.1839,3.196,3.1933,3.2101,3.198,3.1926,3.197,3.1965,3.2084,3.2099,3.214,3.2313,3.2321,3.2191,3.2197,3.2202,3.2205,0,0,0,0,0,0,0,3.1607,3.1632,3.1889,3.1834,3.1839,3.1831,3.185,3.1965,3.2026,3.193,3.1929,3.195,3.2085,3.213,3.2144,3.2323,3.2191,3.22,3.2207,3.2211,3.2621,3.2625,0,0,0,0,0,0,3.1593,3.1623,3.1883,3.1894,3.1716,3.1841,3.1862,3.1925,3.2025,3.2036,3.1954,3.1949,3.2114,3.2132,3.215,3.2327,3.2202,3.2212,3.2218,3.2617,3.2622,3.2627,0,0,0,0,0,0,3.1585,3.1616,3.1876,3.1759,3.1791,3.1852,3.1923,3.1931,3.1976,3.2042,3.2052,3.1989,3.2111,3.2135,3.2266,3.2332,3.2217,3.2226,3.2611,3.2618,3.2624,3.2683,0,0,0,0,0,0,3.1575,3.1613,3.1673,3.176,3.1798,3.1993,3.1927,3.1937,3.1995,3.199,3.2078,3.2088,3.211,3.225,3.2277,3.2345,3.2235,3.2606,3.2614,3.2622,3.2675,3.2691,3.2704,0,0,0,0,0,3.1562,3.1682,3.1676,3.1707,3.1873,3.1997,3.2018,3.2042,3.2,3.2058,3.21,3.2085,3.2321,3.2264,3.2294,3.2366,3.2601,3.2612,3.2622,3.2669,3.2688,3.2704,0,0,0,0,0,0,3.16,3.1694,3.1688,3.184,3.1911,3.1993,3.2068,3.2062,3.2144,3.2136,3.216,3.218,3.2312,3.2352,3.2287,3.2512,3.2455,3.2472,3.2481,3.25,3.2514,3.25,3.2244,0,0,0,0,0,3.1626,3.172,3.1797,3.1923,3.1959,3.2007,3.2062,3.2074,3.2147,3.2177,3.2229,3.2298,3.2387,3.2446,3.2532,3.2681,3.2698,3.2745,3.2759,3.2771,3.2784,3.2862,3.2883,3.266,3.266,3.266,0,0,3.168,3.1743,3.1802,3.1932,3.1988,3.2083,3.2032,3.2136,3.2205,3.2192,3.2318,3.2359,3.2437,3.2577,3.2641,3.2615,3.2849,3.2784,3.2792,3.28,3.2874,3.2895,3.2914,3.2667,3.2666,3.2665,0,0,3.1827,3.1886,3.1996,3.2053,3.2139,3.217,3.2196,3.2279,3.2306,3.2434,3.2425,3.2506,3.266,3.2716,3.2764,3.2928,3.2916,3.2956,3.303,3.3106,3.3123,3.3139,3.3194,3.3214,3.2969,3.2969,3.2969,0,3.1884,3.2028,3.2053,3.2157,3.2213,3.2206,3.2316,3.2369,3.2478,3.2515,3.2484,3.2675,3.2728,3.2879,3.2918,3.2959,3.2986,3.2946,3.3119,3.3135,3.315,3.3203,3.3224,3.2973,3.2973,3.2972,3.2972,0,3.2091,3.2191,3.227,3.2376,3.244,3.2546,3.2584,3.2646,3.2652,3.2684,3.2812,3.2875,3.2972,3.3009,3.3016,3.3159,3.314,3.3114,3.3057,3.3175,3.3224,3.3245,3.2979,3.2978,3.2976,3.2975,0,0,3.2268,3.2385,3.2413,3.2459,3.2552,3.2628,3.2732,3.2828,3.2879,3.2953,3.3038,3.3167,3.3143,3.3198,3.321,3.3276,3.3398,3.3242,3.3244,3.3266,3.3555,3.3573,3.3597,3.339,3.3394,3.3398,3.3548,0,3.2422,3.2609,3.2632,3.2796,3.2886,3.288,3.2969,3.3034,3.3066,3.3145,3.318,3.327,3.3233,3.3265,3.333,3.3369,3.3456,3.3359,3.3466,3.347,3.3445,3.3623,3.3643,3.3782,3.3568,3.3571,3.3574,0,3.2628,3.2708,3.2881,3.2958,3.2997,3.3078,3.3165,3.3242,3.3313,3.3332,3.3392,3.3395,3.3498,3.3437,3.3577,3.3511,3.3556,3.3581,3.3587,3.3596,3.3528,3.3635,3.3828,3.3847,3.3605,3.3603,3.3601,0,3.2735,3.2887,3.3009,3.305,3.3143,3.3199,3.324,3.3308,3.3363,3.3438,3.3473,3.356,3.3607,3.3672,3.3696,3.3651,3.3834,3.3776,3.3849,3.3848,3.3887,3.3884,3.4087,3.3919,3.3919,3.3919,3.3918,0,3.2904,3.3009,3.3059,3.3134,3.325,3.3275,3.3388,3.3426,3.3486,3.3565,3.3564,3.3638,3.3667,3.3745,3.3764,3.3875,3.3896,3.3912,3.3915,3.3911,3.3909,3.394,3.393,3.3924,3.3923,3.3922,3.3921,0,3.3044,3.3082,3.3214,3.3291,3.3313,3.3395,3.346,3.353,3.3561,3.3661,3.3686,3.3733,3.3824,3.3855,3.3966,3.3978,3.4106,3.4103,3.4083,3.4083,3.4153,3.4145,3.4381,3.4412,3.4226,3.4228,3.4229,0,3.3149,3.3229,3.3315,3.3369,3.3413,3.35,3.3556,3.3582,3.3639,3.3725,3.3784,3.3874,3.3948,3.4093,3.4135,3.4218,3.4215,3.4292,3.4227,3.4219,3.4213,3.4207,3.4213,3.4304,3.4306,3.4307,3.4308,0,3.3329,3.3343,3.3425,3.3513,3.358,3.365,3.3717,3.376,3.3796,3.386,3.3953,3.4011,3.4122,3.4211,3.4295,3.4333,3.4326,3.4328,3.4349,3.4345,3.4329,3.4335,3.4113,3.4323,3.4321,3.432,3.432,3.4319,3.3452,3.3522,3.3593,3.3683,3.3737,3.3799,3.3869,3.3908,3.3987,3.4081,3.4091,3.4191,3.4255,3.4368,3.441,3.4486,3.4464,3.4495,3.4502,3.4509,3.4513,3.4318,3.4502,3.4501,3.4501,3.4501,3.45,0,3.363,3.3675,3.3758,3.3852,3.3922,3.3911,3.3984,3.4042,3.413,3.4193,3.4265,3.437,3.4455,3.4504,3.4588,3.4639,3.4637,3.466,3.4655,3.4663,3.4529,3.4502,3.4659,3.4659,3.4659,3.4659,3.4659,3.4659,3.373,3.3848,3.3869,3.4011,3.4055,3.4154,3.4196,3.4252,3.4302,3.442,3.4491,3.4523,3.4578,3.4665,3.4741,3.4753,3.4782,3.4807,3.4816,3.469,3.4673,3.4658,3.4632,3.4814,3.4814,3.4943,3.4945,3.4945]}]]